Location: Ripley
(48.3812°N, 115.4473°W)
Time: 12:29:12
(UTC+00:00)

AIST 2D - Pass Details

Date: 07 July 2022
Orbit: 433 x 443 km, 97.0° (Epoch: 11 August)

Event Time Altitude Azimuth Distance (km) Brightness Sun altitude
Rises 04:22:50 0° 29° (NNE) 2,431 ? -5.7°
Reaches altitude 10° 04:25:29 10° 52° (NE) 1,557 ? -6.0°
Maximum altitude 04:27:36 16° 92° (E) 1,245 ? -6.2°
Drops below altitude 10° 04:29:43 10° 131° (SE) 1,553 ? -6.5°
Enters shadow 04:30:06 - 136° (SE) 1,661 ? -6.5°
